contact:dominique.lefevre@mio.osupytheas.fr, maurice.libes@osupytheas.fr, didier.mallarino@osupytheas.fr
Project:EMSO http://www.emso-fr.org/EMSO-France
Depth: 2436.0 m
Title:EMSO Ligure Ouest : Data MII capteur AQUADOPP
Date,Latitude,Longitude,X_East,Y_North,Z_Up,Amplitude_X,Amplitude_Y,Amplitude_Z,Batterie,SoundSpeed,Heading,Pitch,Roll,Pressure,TIS,Speed,Direction
, degrees North, degrees East, m.s-1, m.s-1,m.s-1, 1, 1, 1, Volt, m.s-1, degree, degree, degree, dbar, degree_C, m.s-1, degree
2022-06-11T00:04:03,42.805,6.029,0.045,-0.006,-0.012,106.0,104.0,102.0,13.3,1505.2,324.1,-0.8,1.8,2470.803,13.28,0.045,97.6
2022-06-11T00:07:03,42.805,6.029,0.044,-0.031,0.013,104.0,104.0,102.0,13.3,1505.2,324.4,-0.8,1.8,2470.809,13.28,0.053,125.2
2022-06-11T00:10:03,42.805,6.029,0.033,-0.017,-0.03,105.0,105.0,102.0,13.4,1505.2,329.1,-0.7,1.8,2470.793,13.28,0.037,117.3
2022-06-11T00:13:03,42.805,6.029,0.025,-0.017,0.001,105.0,106.0,101.0,13.4,1505.2,329.4,-0.8,1.8,2470.822,13.28,0.03,124.2
2022-06-11T00:16:03,42.805,6.029,0.03,-0.021,-0.021,105.0,105.0,103.0,13.4,1505.2,329.7,-0.8,1.8,2470.78,13.28,0.036,125.0
2022-06-11T00:19:03,42.805,6.029,0.044,-0.008,0.009,105.0,105.0,102.0,13.4,1505.2,327.6,-0.8,1.8,2470.8,13.28,0.044,100.3
2022-06-11T00:22:03,42.805,6.029,0.057,-0.01,0.003,105.0,107.0,101.0,13.4,1505.2,320.3,-0.7,1.9,2470.79,13.28,0.057,99.9
2022-06-11T00:25:03,42.805,6.029,0.046,-0.016,-0.002,105.0,106.0,102.0,13.3,1505.2,320.6,-0.8,1.8,2470.794,13.28,0.048,109.2
2022-06-11T00:28:03,42.805,6.029,0.065,0.004,0.017,105.0,105.0,102.0,13.4,1505.2,332.1,-0.8,1.8,2470.794,13.28,0.065,86.5
2022-06-11T00:31:03,42.805,6.029,0.066,-0.007,0.001,106.0,104.0,102.0,13.4,1505.2,325.6,-0.8,1.8,2470.791,13.28,0.066,96.1
2022-06-11T00:34:03,42.805,6.029,0.051,-0.021,0.0,105.0,104.0,103.0,13.4,1505.2,331.1,-0.7,1.8,2470.804,13.28,0.055,112.4
2022-06-11T00:37:03,42.805,6.029,0.043,0.001,0.009,105.0,103.0,101.0,13.4,1505.2,330.0,-0.8,1.8,2470.782,13.28,0.043,88.7
2022-06-11T00:40:03,42.805,6.029,0.046,-0.017,-0.001,104.0,105.0,101.0,13.3,1505.2,329.3,-0.8,1.8,2470.782,13.28,0.049,110.3
2022-06-11T00:43:03,42.805,6.029,0.048,0.007,0.02,106.0,104.0,101.0,13.3,1505.2,321.0,-0.8,1.8,2470.791,13.28,0.048,81.7
2022-06-11T00:46:03,42.805,6.029,0.039,-0.035,0.009,106.0,105.0,101.0,13.4,1505.2,333.4,-0.7,1.8,2470.828,13.28,0.052,131.9
2022-06-11T00:49:03,42.805,6.029,0.051,-0.016,-0.006,105.0,105.0,102.0,13.3,1505.2,329.0,-0.8,1.8,2470.77,13.28,0.053,107.4
2022-06-11T00:52:03,42.805,6.029,0.053,-0.019,-0.017,104.0,104.0,101.0,13.4,1505.2,329.0,-0.7,1.8,2470.774,13.28,0.056,109.7
2022-06-11T00:55:03,42.805,6.029,0.053,0.0,-0.019,106.0,104.0,103.0,13.3,1505.2,323.8,-0.8,1.8,2470.811,13.28,0.053,90.0
2022-06-11T00:58:03,42.805,6.029,0.055,-0.037,0.0,106.0,105.0,101.0,13.3,1505.2,333.4,-0.7,1.8,2470.819,13.28,0.066,123.9
2022-06-11T01:04:03,42.805,6.029,0.057,-0.008,-0.04,106.0,105.0,101.0,13.3,1505.2,327.2,-0.8,1.8,2470.866,13.28,0.057,98.0
2022-06-11T01:07:03,42.805,6.029,0.043,-0.017,-0.009,105.0,103.0,102.0,13.4,1505.2,320.3,-0.8,1.8,2470.841,13.28,0.046,111.6
2022-06-11T01:10:03,42.805,6.029,0.068,-0.014,0.013,104.0,105.0,101.0,13.4,1505.2,325.3,-0.8,1.8,2470.882,13.28,0.069,101.6
2022-06-11T01:13:03,42.805,6.029,0.051,-0.027,0.017,105.0,104.0,102.0,13.4,1505.2,330.4,-0.8,1.8,2470.847,13.28,0.057,117.9
2022-06-11T01:16:03,42.805,6.029,0.04,-0.023,0.022,105.0,105.0,102.0,13.3,1505.2,323.8,-0.8,1.8,2470.819,13.28,0.046,119.9
2022-06-11T01:19:03,42.805,6.029,0.069,-0.022,0.021,104.0,105.0,103.0,13.3,1505.2,330.5,-0.8,1.8,2470.827,13.28,0.072,107.7
2022-06-11T01:22:03,42.805,6.029,0.044,-0.011,0.0,104.0,104.0,102.0,13.4,1505.2,325.3,-0.8,1.8,2470.84,13.28,0.045,104.0
2022-06-11T01:25:03,42.805,6.029,0.079,-0.023,0.021,105.0,104.0,102.0,13.4,1505.2,330.3,-0.7,1.8,2470.847,13.28,0.082,106.2
2022-06-11T01:28:03,42.805,6.029,0.061,-0.026,-0.012,105.0,104.0,101.0,13.3,1505.2,322.3,-0.7,1.8,2470.82,13.28,0.066,113.1
2022-06-11T01:31:03,42.805,6.029,0.046,-0.015,-0.007,104.0,105.0,102.0,13.4,1505.2,324.2,-0.8,1.8,2470.853,13.28,0.048,108.1
2022-06-11T01:34:03,42.805,6.029,0.05,-0.018,-0.009,104.0,104.0,102.0,13.4,1505.2,320.3,-0.7,1.8,2470.815,13.28,0.053,109.8
2022-06-11T01:37:03,42.805,6.029,0.039,-0.04,-0.015,104.0,105.0,101.0,13.4,1505.2,327.9,-0.7,1.8,2470.841,13.28,0.055,135.7
2022-06-11T01:40:03,42.805,6.029,0.061,-0.027,-0.014,104.0,104.0,101.0,13.4,1505.2,327.2,-0.8,1.8,2470.827,13.28,0.066,113.9
2022-06-11T01:43:03,42.805,6.029,0.061,-0.032,-0.018,105.0,104.0,101.0,13.4,1505.2,324.8,-0.8,1.8,2470.837,13.28,0.068,117.7
2022-06-11T01:46:03,42.805,6.029,0.036,-0.003,-0.01,105.0,105.0,103.0,13.4,1505.2,327.2,-0.8,1.8,2470.835,13.28,0.036,94.8
2022-06-11T01:49:03,42.805,6.029,0.044,-0.038,-0.023,105.0,103.0,101.0,13.4,1505.2,329.5,-0.8,1.8,2470.85,13.28,0.058,130.8
2022-06-11T01:52:03,42.805,6.029,0.058,-0.022,-0.012,105.0,105.0,101.0,13.4,1505.2,330.9,-0.7,1.9,2470.835,13.28,0.062,110.8
2022-06-11T01:55:03,42.805,6.029,0.055,0.0,0.0,105.0,104.0,101.0,13.4,1505.2,320.4,-0.8,1.8,2470.845,13.28,0.055,90.0
2022-06-11T01:58:03,42.805,6.029,0.046,-0.003,0.0,104.0,104.0,101.0,13.4,1505.2,324.6,-0.8,1.8,2470.866,13.28,0.046,93.7
2022-06-11T02:04:02,42.805,6.029,0.038,-0.009,-0.008,105.0,104.0,101.0,13.4,1505.2,329.2,-0.7,1.8,2470.882,13.28,0.039,103.3
2022-06-11T02:07:03,42.805,6.029,0.067,-0.023,-0.001,105.0,104.0,101.0,13.4,1505.2,322.5,-0.7,1.8,2470.929,13.28,0.07,108.9
2022-06-11T02:10:03,42.805,6.029,0.045,-0.005,-0.016,105.0,105.0,101.0,13.4,1505.2,326.3,-0.8,1.8,2470.887,13.28,0.045,96.3
2022-06-11T02:13:03,42.805,6.029,0.038,-0.016,-0.012,105.0,103.0,101.0,13.4,1505.2,330.6,-0.8,1.8,2470.902,13.28,0.041,112.8
2022-06-11T02:16:03,42.805,6.029,0.061,-0.016,-0.002,104.0,104.0,101.0,13.3,1505.2,327.1,-0.7,1.8,2470.87,13.28,0.063,104.7
2022-06-11T02:19:03,42.805,6.029,0.049,0.002,0.027,104.0,105.0,101.0,13.4,1505.2,321.1,-0.8,1.9,2470.886,13.28,0.049,87.7
2022-06-11T02:22:03,42.805,6.029,0.037,-0.025,0.01,105.0,104.0,100.0,13.3,1505.2,321.7,-0.7,1.8,2470.866,13.28,0.044,124.0
2022-06-11T02:25:03,42.805,6.029,0.038,-0.029,-0.01,105.0,102.0,101.0,13.4,1505.2,321.2,-0.8,1.8,2470.846,13.28,0.047,127.3
2022-06-11T02:28:03,42.805,6.029,0.057,-0.025,0.009,104.0,104.0,102.0,13.4,1505.2,327.2,-0.8,1.8,2470.879,13.28,0.062,113.7
2022-06-11T02:31:03,42.805,6.029,0.068,-0.023,-0.004,104.0,103.0,102.0,13.4,1505.2,326.6,-0.7,1.8,2470.851,13.28,0.071,108.7
2022-06-11T02:34:03,42.805,6.029,0.04,-0.016,-0.006,103.0,105.0,102.0,13.4,1505.2,332.3,-0.8,1.8,2470.895,13.28,0.043,111.8
2022-06-11T02:37:03,42.805,6.029,0.046,-0.035,-0.013,104.0,105.0,101.0,13.3,1505.2,330.6,-0.8,1.9,2470.868,13.28,0.057,127.3
2022-06-11T02:40:03,42.805,6.029,0.059,-0.022,-0.01,104.0,105.0,101.0,13.4,1505.2,325.4,-0.8,1.8,2470.861,13.28,0.062,110.4
2022-06-11T02:43:03,42.805,6.029,0.048,-0.018,0.02,104.0,105.0,101.0,13.3,1505.2,332.9,-0.8,1.8,2470.916,13.28,0.051,110.6
2022-06-11T02:46:03,42.805,6.029,0.037,-0.012,0.003,105.0,104.0,102.0,13.4,1505.2,330.9,-0.8,1.8,2470.869,13.28,0.038,108.0
2022-06-11T02:49:03,42.805,6.029,0.06,-0.032,-0.022,105.0,103.0,101.0,13.4,1505.2,324.7,-0.7,1.8,2470.865,13.28,0.067,118.1
2022-06-11T02:52:03,42.805,6.029,0.061,-0.064,-0.025,105.0,103.0,102.0,13.4,1505.2,325.9,-0.7,1.8,2470.871,13.28,0.088,136.4
2022-06-11T02:55:03,42.805,6.029,0.06,-0.011,-0.034,105.0,103.0,102.0,13.4,1505.2,328.8,-0.7,1.8,2470.862,13.28,0.06,100.4
2022-06-11T02:58:03,42.805,6.029,0.031,-0.039,-0.003,103.0,104.0,102.0,13.4,1505.2,330.8,-0.8,1.8,2470.876,13.28,0.049,141.5
2022-06-11T03:04:03,42.805,6.029,0.061,-0.025,0.012,105.0,103.0,102.0,13.4,1505.2,328.6,-0.7,1.8,2470.874,13.28,0.065,112.3
2022-06-11T03:07:03,42.805,6.029,0.03,-0.019,0.011,104.0,104.0,101.0,13.3,1505.2,333.6,-0.7,1.8,2470.887,13.28,0.035,122.3
2022-06-11T03:10:03,42.805,6.029,0.047,-0.008,0.021,104.0,105.0,101.0,13.4,1505.2,322.1,-0.8,1.8,2470.901,13.28,0.047,99.7
2022-06-11T03:13:03,42.805,6.029,0.035,-0.017,-0.025,103.0,105.0,101.0,13.3,1505.2,330.7,-0.8,1.8,2470.902,13.28,0.038,115.9
2022-06-11T03:16:03,42.805,6.029,0.04,-0.039,-0.024,103.0,104.0,102.0,13.4,1505.2,330.9,-0.8,1.8,2470.89,13.28,0.055,134.3
2022-06-11T03:19:03,42.805,6.029,0.052,-0.011,-0.003,106.0,104.0,101.0,13.4,1505.2,332.1,-0.8,1.8,2470.91,13.28,0.053,101.9
2022-06-11T03:22:03,42.805,6.029,0.069,-0.004,0.002,105.0,104.0,101.0,13.4,1505.2,323.4,-0.8,1.8,2470.938,13.28,0.069,93.3
2022-06-11T03:25:03,42.805,6.029,0.05,-0.01,0.005,102.0,103.0,102.0,13.4,1505.2,320.9,-0.8,1.8,2470.867,13.28,0.05,101.3
2022-06-11T03:28:03,42.805,6.029,0.032,-0.031,-0.006,105.0,103.0,101.0,13.4,1505.2,325.7,-0.8,1.8,2470.862,13.28,0.044,134.1
2022-06-11T03:31:03,42.805,6.029,0.039,-0.01,-0.011,104.0,104.0,102.0,13.3,1505.2,324.8,-0.8,1.8,2470.899,13.28,0.04,104.4
2022-06-11T03:34:03,42.805,6.029,0.06,-0.05,0.0,105.0,103.0,101.0,13.3,1505.2,330.5,-0.7,1.8,2470.876,13.28,0.078,129.8
2022-06-11T03:37:03,42.805,6.029,0.039,-0.038,0.014,103.0,104.0,102.0,13.3,1505.2,322.4,-0.7,1.8,2470.918,13.28,0.054,134.3
2022-06-11T03:40:03,42.805,6.029,0.033,0.012,-0.004,104.0,103.0,101.0,13.3,1505.2,325.5,-0.8,1.8,2470.885,13.28,0.035,70.0
2022-06-11T03:43:03,42.805,6.029,0.038,-0.017,0.019,104.0,103.0,102.0,13.3,1505.2,325.0,-0.7,1.8,2470.908,13.28,0.041,114.1
2022-06-11T03:46:03,42.805,6.029,0.028,-0.002,-0.006,103.0,103.0,101.0,13.3,1505.2,328.2,-0.8,1.8,2470.914,13.28,0.028,94.1
2022-06-11T03:49:03,42.805,6.029,0.04,-0.028,0.019,104.0,104.0,102.0,13.4,1505.2,332.5,-0.7,1.8,2470.901,13.28,0.048,125.0
2022-06-11T03:52:03,42.805,6.029,0.067,-0.039,0.004,104.0,104.0,101.0,13.4,1505.2,332.3,-0.8,1.8,2470.912,13.28,0.077,120.2
2022-06-11T03:55:03,42.805,6.029,0.053,-0.011,-0.026,103.0,104.0,101.0,13.4,1505.2,324.1,-0.8,1.8,2470.891,13.28,0.054,101.7
2022-06-11T03:58:03,42.805,6.029,0.051,-0.018,-0.001,104.0,104.0,101.0,13.4,1505.2,323.0,-0.7,1.8,2470.864,13.28,0.054,109.4
2022-06-11T04:04:03,42.805,6.029,0.057,-0.026,-0.014,103.0,104.0,100.0,13.4,1505.2,326.8,-0.8,1.9,2470.904,13.28,0.062,114.5
2022-06-11T04:07:03,42.805,6.029,0.052,-0.028,-0.005,104.0,102.0,101.0,13.3,1505.2,328.7,-0.7,1.8,2470.927,13.28,0.059,118.3
2022-06-11T04:10:03,42.805,6.029,0.033,-0.028,-0.015,105.0,105.0,100.0,13.4,1505.2,327.5,-0.7,1.8,2470.928,13.28,0.043,130.3
2022-06-11T04:13:03,42.805,6.029,0.041,-0.021,-0.001,104.0,103.0,101.0,13.4,1505.2,330.7,-0.8,1.8,2470.881,13.28,0.046,117.1
2022-06-11T04:16:03,42.805,6.029,0.069,-0.004,0.005,104.0,103.0,101.0,13.4,1505.2,325.0,-0.7,1.8,2470.904,13.28,0.069,93.3
2022-06-11T04:19:03,42.805,6.029,0.035,-0.025,-0.029,104.0,103.0,102.0,13.4,1505.2,322.9,-0.7,1.8,2470.913,13.28,0.043,125.5
2022-06-11T04:22:03,42.805,6.029,0.025,-0.027,-0.021,104.0,104.0,102.0,13.3,1505.2,326.5,-0.8,1.8,2470.911,13.28,0.036,137.2
2022-06-11T04:25:03,42.805,6.029,0.049,-0.017,-0.002,105.0,105.0,102.0,13.3,1505.2,320.9,-0.7,1.9,2470.893,13.28,0.051,109.1
2022-06-11T04:28:03,42.805,6.029,0.032,-0.036,-0.001,104.0,104.0,101.0,13.4,1505.2,324.0,-0.7,1.8,2470.904,13.28,0.048,138.4
2022-06-11T04:31:03,42.805,6.029,0.054,-0.01,-0.041,105.0,103.0,101.0,13.4,1505.2,327.4,-0.7,1.8,2470.927,13.28,0.054,100.5
2022-06-11T04:34:03,42.805,6.029,0.035,-0.006,-0.004,105.0,104.0,101.0,13.3,1505.2,322.3,-0.7,1.8,2470.886,13.28,0.035,99.7
2022-06-11T04:37:03,42.805,6.029,0.046,-0.006,0.019,104.0,103.0,101.0,13.4,1505.2,325.4,-0.8,1.8,2470.9,13.28,0.046,97.4
2022-06-11T04:40:03,42.805,6.029,0.037,-0.028,-0.008,105.0,106.0,100.0,13.3,1505.2,328.0,-0.8,1.8,2470.911,13.28,0.046,127.1
2022-06-11T04:43:03,42.805,6.029,0.059,-0.041,-0.004,105.0,103.0,101.0,13.4,1505.2,326.9,-0.8,1.8,2470.898,13.28,0.071,124.8
2022-06-11T04:46:03,42.805,6.029,0.051,-0.034,-0.032,104.0,105.0,102.0,13.3,1505.2,327.3,-0.7,1.8,2470.918,13.28,0.061,123.7
2022-06-11T04:49:03,42.805,6.029,0.06,-0.031,-0.027,104.0,104.0,101.0,13.4,1505.2,320.5,-0.8,1.8,2470.903,13.28,0.067,117.3
2022-06-11T04:52:03,42.805,6.029,0.021,-0.007,-0.033,103.0,104.0,101.0,13.4,1505.2,325.9,-0.7,1.8,2470.889,13.28,0.022,108.4
2022-06-11T04:55:03,42.805,6.029,0.043,-0.036,-0.025,103.0,103.0,102.0,13.4,1505.2,329.6,-0.8,1.8,2470.927,13.28,0.056,129.9
2022-06-11T04:58:03,42.805,6.029,0.034,-0.021,-0.014,104.0,104.0,102.0,13.4,1505.2,323.1,-0.8,1.8,2470.931,13.28,0.039,121.7
2022-06-11T05:04:03,42.805,6.029,0.048,-0.03,-0.033,104.0,103.0,103.0,13.4,1505.2,322.0,-0.7,1.8,2470.928,13.28,0.056,122.0
2022-06-11T05:07:03,42.805,6.029,0.023,-0.026,0.009,104.0,103.0,101.0,13.3,1505.2,324.8,-0.8,1.8,2470.935,13.28,0.034,138.5
2022-06-11T05:10:03,42.805,6.029,0.051,-0.035,-0.022,105.0,104.0,100.0,13.4,1505.2,320.5,-0.7,1.8,2470.909,13.28,0.061,124.5
2022-06-11T05:13:03,42.805,6.029,0.04,-0.035,-0.031,104.0,103.0,102.0,13.4,1505.2,328.4,-0.7,1.8,2470.922,13.28,0.053,131.2
2022-06-11T05:16:03,42.805,6.029,0.036,-0.032,-0.002,105.0,103.0,102.0,13.4,1505.2,332.3,-0.8,1.8,2470.905,13.28,0.048,131.6
2022-06-11T05:19:03,42.805,6.029,0.064,-0.028,-0.016,105.0,102.0,101.0,13.4,1505.2,323.3,-0.8,1.9,2470.94,13.28,0.069,113.6
2022-06-11T05:22:03,42.805,6.029,0.042,-0.015,-0.004,104.0,104.0,101.0,13.4,1505.2,326.1,-0.7,1.8,2470.88,13.28,0.044,109.6
2022-06-11T05:25:03,42.805,6.029,0.049,-0.014,-0.004,104.0,103.0,102.0,13.3,1505.2,324.0,-0.8,1.8,2470.914,13.28,0.05,105.9
2022-06-11T05:28:03,42.805,6.029,0.047,-0.013,-0.014,104.0,103.0,101.0,13.4,1505.2,328.7,-0.8,1.8,2470.912,13.28,0.048,105.5
2022-06-11T05:31:03,42.805,6.029,0.024,-0.02,-0.015,105.0,103.0,102.0,13.4,1505.2,330.0,-0.7,1.9,2470.901,13.28,0.031,129.8
2022-06-11T05:34:03,42.805,6.029,0.062,-0.016,0.037,105.0,104.0,101.0,13.4,1505.2,321.5,-0.8,1.8,2470.89,13.28,0.064,104.5
2022-06-11T05:37:03,42.805,6.029,0.039,-0.024,-0.009,106.0,103.0,101.0,13.3,1505.2,324.3,-0.7,1.8,2470.855,13.28,0.045,121.6
2022-06-11T05:40:03,42.805,6.029,0.033,-0.018,-0.002,105.0,105.0,101.0,13.3,1505.2,329.8,-0.7,1.8,2470.892,13.28,0.037,118.6
2022-06-11T05:43:03,42.805,6.029,0.058,-0.014,-0.001,104.0,104.0,100.0,13.4,1505.2,320.9,-0.7,1.8,2470.889,13.28,0.059,103.6
2022-06-11T05:46:03,42.805,6.029,0.064,-0.034,0.008,104.0,104.0,102.0,13.4,1505.2,323.3,-0.7,1.8,2470.88,13.28,0.072,118.0
2022-06-11T05:49:03,42.805,6.029,0.032,-0.011,0.037,105.0,103.0,101.0,13.4,1505.2,332.5,-0.8,1.8,2470.859,13.28,0.033,109.0
2022-06-11T05:52:03,42.805,6.029,0.028,-0.041,-0.02,105.0,103.0,102.0,13.4,1505.2,327.7,-0.8,1.8,2470.859,13.28,0.049,145.7
2022-06-11T05:55:03,42.805,6.029,0.02,-0.015,-0.016,102.0,103.0,102.0,13.4,1505.2,327.6,-0.7,1.8,2470.888,13.28,0.025,126.9
2022-06-11T05:58:03,42.805,6.029,0.059,-0.044,-0.051,103.0,104.0,101.0,13.4,1505.2,324.1,-0.8,1.8,2470.91,13.28,0.073,126.7
2022-06-11T06:04:03,42.805,6.029,0.034,-0.014,-0.021,102.0,104.0,102.0,13.4,1505.2,331.9,-0.7,1.9,2470.913,13.28,0.036,112.4
2022-06-11T06:07:03,42.805,6.029,0.02,-0.052,-0.017,105.0,105.0,101.0,13.4,1505.2,330.3,-0.8,1.8,2470.895,13.28,0.055,159.0
2022-06-11T06:10:03,42.805,6.029,0.058,-0.044,-0.043,104.0,104.0,102.0,13.4,1505.2,331.5,-0.8,1.8,2470.962,13.28,0.072,127.2
2022-06-11T06:13:03,42.805,6.029,0.052,-0.02,-0.007,103.0,104.0,102.0,13.3,1505.2,322.3,-0.8,1.8,2470.885,13.28,0.055,111.0
2022-06-11T06:16:03,42.805,6.029,0.029,-0.028,-0.051,105.0,102.0,102.0,13.3,1505.2,329.3,-0.7,1.8,2470.904,13.28,0.04,134.0
2022-06-11T06:19:03,42.805,6.029,0.035,-0.02,-0.058,105.0,103.0,101.0,13.3,1505.2,323.1,-0.8,1.8,2470.872,13.28,0.04,119.7
2022-06-11T06:22:03,42.805,6.029,0.037,-0.005,-0.008,103.0,103.0,100.0,13.4,1505.2,323.6,-0.7,1.8,2470.871,13.28,0.037,97.7
2022-06-11T06:25:03,42.805,6.029,0.05,-0.032,-0.028,103.0,103.0,101.0,13.3,1505.2,328.4,-0.7,1.8,2470.849,13.28,0.059,122.6
2022-06-11T06:28:03,42.805,6.029,0.052,-0.036,-0.028,103.0,103.0,102.0,13.3,1505.2,331.0,-0.7,1.8,2470.905,13.28,0.063,124.7
2022-06-11T06:31:03,42.805,6.029,0.037,-0.024,-0.025,103.0,103.0,102.0,13.4,1505.2,322.5,-0.8,1.8,2470.857,13.28,0.044,123.0
2022-06-11T06:34:03,42.805,6.029,0.027,-0.033,-0.056,105.0,103.0,101.0,13.4,1505.2,325.3,-0.7,1.8,2470.886,13.28,0.042,140.7
2022-06-11T06:37:03,42.805,6.029,0.051,-0.022,-0.05,104.0,104.0,103.0,13.3,1505.2,327.2,-0.8,1.8,2470.876,13.28,0.055,113.3
2022-06-11T06:40:03,42.805,6.029,0.053,-0.041,-0.022,104.0,104.0,102.0,13.3,1505.2,327.6,-0.8,1.8,2470.896,13.28,0.067,127.7
2022-06-11T06:43:03,42.805,6.029,0.041,-0.026,-0.029,104.0,103.0,101.0,13.4,1505.2,327.6,-0.7,1.8,2470.862,13.28,0.048,122.4
2022-06-11T06:46:03,42.805,6.029,0.025,-0.015,-0.028,105.0,103.0,102.0,13.4,1505.2,324.6,-0.7,1.9,2470.88,13.28,0.029,121.0
2022-06-11T06:49:03,42.805,6.029,0.025,-0.005,-0.02,105.0,104.0,102.0,13.4,1505.2,322.3,-0.7,1.8,2470.811,13.28,0.025,101.3
2022-06-11T06:52:03,42.805,6.029,0.035,-0.007,-0.044,103.0,103.0,101.0,13.4,1505.2,327.2,-0.8,1.8,2470.805,13.28,0.035,101.3
2022-06-11T06:55:03,42.805,6.029,0.043,-0.043,-0.015,104.0,103.0,101.0,13.4,1505.2,330.8,-0.8,1.8,2470.819,13.28,0.06,135.0
2022-06-11T06:58:03,42.805,6.029,0.042,-0.025,-0.033,103.0,103.0,102.0,13.4,1505.2,321.2,-0.8,1.8,2470.866,13.28,0.048,120.8
2022-06-11T07:04:03,42.805,6.029,0.018,-0.007,-0.029,104.0,103.0,101.0,13.4,1505.2,324.9,-0.7,1.8,2470.892,13.28,0.019,111.2
2022-06-11T07:07:03,42.805,6.029,0.043,-0.032,-0.043,103.0,103.0,100.0,13.3,1505.2,323.1,-0.8,1.8,2470.874,13.28,0.053,126.7
2022-06-11T07:10:03,42.805,6.029,0.022,-0.002,-0.025,105.0,102.0,101.0,13.4,1505.2,324.5,-0.8,1.8,2470.857,13.28,0.022,95.2
2022-06-11T07:13:03,42.805,6.029,0.051,-0.033,-0.001,104.0,103.0,100.0,13.4,1505.2,325.3,-0.7,1.8,2470.862,13.28,0.06,122.9
2022-06-11T07:16:03,42.805,6.029,0.038,-0.008,-0.028,103.0,103.0,102.0,13.4,1505.2,326.1,-0.8,1.8,2470.848,13.28,0.038,101.9
2022-06-11T07:19:03,42.805,6.029,0.035,-0.022,0.007,103.0,103.0,100.0,13.3,1505.2,327.1,-0.8,1.9,2470.852,13.28,0.041,122.2
2022-06-11T07:22:03,42.805,6.029,0.05,-0.022,-0.024,104.0,102.0,101.0,13.4,1505.2,322.4,-0.7,1.8,2470.84,13.28,0.054,113.7
2022-06-11T07:25:03,42.805,6.029,0.024,-0.018,-0.049,103.0,103.0,101.0,13.3,1505.2,323.7,-0.8,1.8,2470.84,13.28,0.03,126.9
2022-06-11T07:28:03,42.805,6.029,0.028,-0.022,-0.009,103.0,103.0,101.0,13.4,1505.2,332.3,-0.7,1.8,2470.785,13.28,0.035,128.2
2022-06-11T07:31:03,42.805,6.029,0.031,-0.046,-0.032,105.0,104.0,102.0,13.4,1505.2,327.4,-0.8,1.8,2470.872,13.28,0.055,146.0
2022-06-11T07:34:03,42.805,6.029,0.027,-0.009,-0.02,103.0,103.0,101.0,13.4,1505.2,328.0,-0.8,1.8,2470.841,13.28,0.028,108.4
2022-06-11T07:37:03,42.805,6.029,0.011,-0.034,-0.016,104.0,104.0,101.0,13.4,1505.2,331.8,-0.7,1.8,2470.847,13.28,0.035,162.1
2022-06-11T07:40:03,42.805,6.029,0.036,-0.035,-0.033,102.0,103.0,101.0,13.4,1505.2,325.9,-0.8,1.8,2470.856,13.28,0.05,134.2
2022-06-11T07:43:03,42.805,6.029,0.031,-0.037,-0.006,103.0,103.0,101.0,13.4,1505.2,322.0,-0.7,1.8,2470.823,13.28,0.048,140.0
2022-06-11T07:46:03,42.805,6.029,0.042,-0.006,-0.013,103.0,103.0,100.0,13.4,1505.2,324.7,-0.8,1.8,2470.846,13.28,0.042,98.1
2022-06-11T07:49:03,42.805,6.029,0.035,-0.036,-0.013,102.0,103.0,101.0,13.4,1505.2,323.7,-0.8,1.8,2470.779,13.28,0.05,135.8
2022-06-11T07:52:03,42.805,6.029,0.054,-0.035,-0.01,104.0,102.0,100.0,13.4,1505.2,324.0,-0.7,1.8,2470.802,13.28,0.064,123.0
2022-06-11T07:55:03,42.805,6.029,0.027,-0.009,-0.034,104.0,103.0,101.0,13.4,1505.2,328.4,-0.7,1.8,2470.822,13.28,0.028,108.4
2022-06-11T07:58:03,42.805,6.029,0.03,-0.003,-0.02,105.0,104.0,101.0,13.3,1505.2,321.2,-0.7,1.8,2470.817,13.28,0.03,95.7
2022-06-11T08:04:03,42.805,6.029,0.021,-0.03,-0.014,103.0,103.0,101.0,13.4,1505.2,327.1,-0.8,1.8,2470.793,13.28,0.036,145.0
2022-06-11T08:07:03,42.805,6.029,0.042,-0.026,0.005,102.0,104.0,101.0,13.3,1505.2,323.0,-0.7,1.8,2470.855,13.28,0.049,121.8
2022-06-11T08:10:03,42.805,6.029,0.017,-0.019,-0.051,103.0,103.0,100.0,13.4,1505.2,327.6,-0.8,1.8,2470.822,13.28,0.025,138.2
2022-06-11T08:13:03,42.805,6.029,0.027,-0.028,0.004,103.0,101.0,101.0,13.4,1505.2,326.8,-0.8,1.9,2470.817,13.28,0.038,136.0
2022-06-11T08:16:03,42.805,6.029,0.03,-0.017,-0.025,104.0,102.0,101.0,13.4,1505.2,326.5,-0.7,1.8,2470.817,13.28,0.034,119.5
2022-06-11T08:19:03,42.805,6.029,0.026,-0.02,-0.013,105.0,102.0,101.0,13.3,1505.2,332.5,-0.8,1.8,2470.798,13.28,0.032,127.6
2022-06-11T08:22:03,42.805,6.029,0.017,-0.014,-0.032,103.0,104.0,101.0,13.4,1505.2,323.4,-0.8,1.8,2470.811,13.28,0.022,129.5
2022-06-11T08:25:03,42.805,6.029,0.021,-0.021,-0.023,102.0,103.0,101.0,13.3,1505.2,320.9,-0.8,1.8,2470.794,13.28,0.029,135.0
2022-06-11T08:28:03,42.805,6.029,0.032,-0.03,-0.003,102.0,103.0,101.0,13.4,1505.2,327.8,-0.8,1.8,2470.785,13.28,0.043,133.1
2022-06-11T08:31:03,42.805,6.029,0.021,-0.024,-0.01,103.0,103.0,100.0,13.4,1505.2,325.3,-0.7,1.8,2470.817,13.28,0.031,138.8
2022-06-11T08:34:03,42.805,6.029,0.062,-0.026,-0.037,103.0,104.0,100.0,13.3,1505.2,328.3,-0.7,1.8,2470.784,13.28,0.067,112.7
2022-06-11T08:37:03,42.805,6.029,0.033,-0.027,0.01,104.0,104.0,101.0,13.4,1505.2,326.5,-0.8,1.8,2470.758,13.28,0.042,129.3
2022-06-11T08:40:03,42.805,6.029,0.038,-0.007,-0.018,103.0,103.0,100.0,13.3,1505.2,320.3,-0.7,1.9,2470.754,13.28,0.038,100.4
2022-06-11T08:43:03,42.805,6.029,0.01,-0.011,-0.036,103.0,103.0,102.0,13.4,1505.2,322.7,-0.8,1.8,2470.822,13.28,0.014,137.7
2022-06-11T08:46:03,42.805,6.029,0.027,-0.023,-0.022,103.0,105.0,101.0,13.4,1505.2,320.7,-0.7,1.9,2470.785,13.28,0.035,130.4
2022-06-11T08:49:03,42.805,6.029,0.034,-0.026,-0.02,103.0,104.0,101.0,13.4,1505.2,324.6,-0.8,1.8,2470.765,13.28,0.042,127.4
2022-06-11T08:52:03,42.805,6.029,0.032,-0.012,-0.004,104.0,103.0,101.0,13.4,1505.2,324.6,-0.8,1.8,2470.795,13.28,0.034,110.6
2022-06-11T08:55:03,42.805,6.029,0.04,-0.007,0.006,104.0,102.0,100.0,13.3,1505.2,322.9,-0.8,1.8,2470.776,13.28,0.04,99.9
2022-06-11T08:58:03,42.805,6.029,0.028,-0.045,-0.019,103.0,103.0,100.0,13.4,1505.2,319.6,-0.8,1.8,2470.779,13.28,0.053,148.1
2022-06-11T09:04:03,42.805,6.029,0.02,0.003,0.01,103.0,104.0,100.0,13.4,1505.2,325.4,-0.8,1.8,2470.829,13.28,0.02,81.5
2022-06-11T09:07:03,42.805,6.029,0.034,-0.03,-0.05,102.0,103.0,101.0,13.3,1505.2,333.2,-0.8,1.8,2470.767,13.28,0.045,131.4
2022-06-11T09:10:03,42.805,6.029,0.021,-0.031,-0.008,104.0,103.0,101.0,13.4,1505.2,332.5,-0.8,1.8,2470.797,13.28,0.037,145.9
2022-06-11T09:13:03,42.805,6.029,0.015,-0.014,-0.006,102.0,103.0,100.0,13.4,1505.2,326.5,-0.8,1.8,2470.772,13.28,0.02,133.0
2022-06-11T09:16:03,42.805,6.029,0.032,-0.012,0.007,103.0,103.0,101.0,13.4,1505.2,321.5,-0.8,1.8,2470.771,13.28,0.034,110.6
2022-06-11T09:19:03,42.805,6.029,0.026,-0.035,-0.021,104.0,103.0,101.0,13.4,1505.2,328.0,-0.8,1.8,2470.768,13.28,0.043,143.4
2022-06-11T09:22:03,42.805,6.029,0.028,-0.029,-0.035,104.0,102.0,100.0,13.4,1505.2,324.4,-0.7,1.8,2470.766,13.28,0.04,136.0
2022-06-11T09:25:03,42.805,6.029,0.034,-0.008,-0.017,102.0,103.0,101.0,13.3,1505.2,322.9,-0.7,1.9,2470.722,13.28,0.034,103.2
2022-06-11T09:28:03,42.805,6.029,0.037,-0.032,-0.015,103.0,103.0,101.0,13.4,1505.2,327.8,-0.7,1.8,2470.733,13.28,0.048,130.9
2022-06-11T09:31:03,42.805,6.029,0.051,-0.016,0.003,103.0,103.0,101.0,13.4,1505.2,329.2,-0.8,1.8,2470.745,13.28,0.053,107.4
2022-06-11T09:34:03,42.805,6.029,0.016,0.004,-0.005,104.0,102.0,101.0,13.4,1505.2,321.2,-0.8,1.8,2470.744,13.28,0.016,76.0
2022-06-11T09:37:03,42.805,6.029,0.034,-0.027,0.005,103.0,102.0,101.0,13.3,1505.2,326.0,-0.8,1.8,2470.742,13.28,0.043,128.5
2022-06-11T09:40:03,42.805,6.029,0.017,0.0,-0.012,103.0,103.0,101.0,13.4,1505.2,324.1,-0.8,1.8,2470.757,13.28,0.017,90.0
2022-06-11T09:43:03,42.805,6.029,0.023,-0.002,0.005,106.0,102.0,101.0,13.4,1505.2,326.8,-0.8,1.8,2470.743,13.28,0.023,95.0
2022-06-11T09:46:03,42.805,6.029,0.053,-0.034,-0.02,101.0,103.0,102.0,13.3,1505.2,328.6,-0.7,1.8,2470.766,13.28,0.062,122.7
2022-06-11T09:49:03,42.805,6.029,0.041,-0.024,-0.022,102.0,102.0,101.0,13.4,1505.2,321.7,-0.8,1.8,2470.723,13.28,0.047,120.3
2022-06-11T09:52:03,42.805,6.029,0.025,-0.036,-0.013,104.0,101.0,101.0,13.4,1505.2,324.6,-0.8,1.8,2470.732,13.28,0.043,145.2
2022-06-11T09:55:03,42.805,6.029,0.019,-0.031,-0.016,103.0,103.0,101.0,13.4,1505.2,324.6,-0.7,1.8,2470.736,13.28,0.036,148.5